JMP300 EDLP-LHPR

Flight info

Callsign JMP300
Flight time N/A
Altitude 13000
Route WRB1W WRB DCT MASEK L604 SULUS Z650 VEMUT DCT GIMBO DCT GASNA DCT GYR
Aircraft C208/L-SDFGR/C

Departure

Time N/A
Airport Paderborn Lippstadt Airport (EDLP)

Arrival

Time 2026-05-06 16:45
Airport Győr-Pér Airport (LHPR)
Time Latitude Longitude Altitude Speed Heading
2026-05-06 16:34 47.85958 17.23267 12800 ft 176 kts 130°
2026-05-06 16:34 47.85323 17.24831 12800 ft 176 kts 130°
2026-05-06 16:35 47.84677 17.26389 12741 ft 179 kts 130°
2026-05-06 16:35 47.83993 17.28011 12363 ft 187 kts 130°
2026-05-06 16:35 47.83309 17.29655 11982 ft 187 kts 130°
2026-05-06 16:35 47.82639 17.31281 11606 ft 180 kts 130°
2026-05-06 16:36 47.81994 17.32854 11236 ft 176 kts 130°
2026-05-06 16:36 47.81358 17.34395 10867 ft 173 kts 131°
2026-05-06 16:36 47.80728 17.35913 10501 ft 171 kts 131°
2026-05-06 16:36 47.80104 17.37415 10143 ft 170 kts 131°
2026-05-06 16:37 47.79484 17.38903 9792 ft 169 kts 132°
2026-05-06 16:37 47.78874 17.40366 9416 ft 168 kts 132°
2026-05-06 16:37 47.78260 17.41839 9029 ft 167 kts 132°
2026-05-06 16:37 47.77650 17.43302 8648 ft 166 kts 132°
2026-05-06 16:38 47.77040 17.44763 8279 ft 166 kts 132°
2026-05-06 16:38 47.76432 17.46221 7905 ft 165 kts 132°
2026-05-06 16:38 47.75828 17.47669 7528 ft 164 kts 133°
2026-05-06 16:38 47.75229 17.49104 7157 ft 163 kts 133°
2026-05-06 16:39 47.74635 17.50527 6794 ft 161 kts 133°
2026-05-06 16:39 47.74043 17.51939 6409 ft 161 kts 133°
2026-05-06 16:39 47.73454 17.53346 6043 ft 160 kts 133°
2026-05-06 16:39 47.72865 17.54753 5669 ft 160 kts 133°
2026-05-06 16:40 47.72277 17.56157 5292 ft 159 kts 133°
2026-05-06 16:40 47.71694 17.57545 4916 ft 158 kts 133°
2026-05-06 16:40 47.71117 17.58921 4552 ft 156 kts 133°
2026-05-06 16:40 47.70544 17.60283 4182 ft 155 kts 132°
2026-05-06 16:41 47.69985 17.61638 3812 ft 154 kts 130°
2026-05-06 16:41 47.69478 17.63039 3449 ft 154 kts 128°
2026-05-06 16:41 47.68968 17.64433 3081 ft 153 kts 129°
2026-05-06 16:41 47.68446 17.65801 2715 ft 151 kts 130°
2026-05-06 16:42 47.67928 17.67142 2323 ft 149 kts 130°
2026-05-06 16:42 47.67437 17.68437 2091 ft 138 kts 131°
2026-05-06 16:42 47.66980 17.69652 1909 ft 132 kts 132°
2026-05-06 16:42 47.66531 17.70817 1725 ft 127 kts 132°
2026-05-06 16:43 47.66102 17.71930 1555 ft 123 kts 130°
2026-05-06 16:43 47.65691 17.73009 1425 ft 120 kts 130°
2026-05-06 16:43 47.65296 17.74073 1265 ft 116 kts 132°
2026-05-06 16:43 47.64908 17.75077 1111 ft 105 kts 131°
2026-05-06 16:44 47.64570 17.75989 964 ft 97 kts 129°
2026-05-06 16:44 47.64257 17.76836 841 ft 91 kts 133°
2026-05-06 16:44 47.63931 17.77609 760 ft 82 kts 128°
2026-05-06 16:44 47.63673 17.78340 641 ft 78 kts 126°
2026-05-06 16:45 47.63410 17.79044 514 ft 77 kts 133°
2026-05-06 16:45 47.63146 17.79709 422 ft 70 kts 134°
2026-05-06 16:45 47.62958 17.80182 429 ft 37 kts 127°
2026-05-06 16:45 47.62849 17.80438 426 ft 23 kts 117°
2026-05-06 16:46 47.62766 17.80674 430 ft 30 kts 117°
2026-05-06 16:46 47.62689 17.80810 425 ft 9 kts 193°
2026-05-06 16:46 47.62637 17.80771 434 ft 10 kts 207°
2026-05-06 16:46 47.62558 17.80709 435 ft 15 kts 210°
2026-05-06 16:47 47.62450 17.80618 425 ft 19 kts 210°
2026-05-06 16:47 47.62406 17.80582 425 ft 0 kts 209°
2026-05-06 16:47 47.62406 17.80581 425 ft 1 kts 209°
2026-05-06 16:48 47.62377 17.80558 435 ft 9 kts 208°
2026-05-06 16:48 47.62350 17.80536 433 ft 4 kts 217°
2026-05-06 16:48 47.62353 17.80488 435 ft 6 kts 299°
2026-05-06 16:48 47.62353 17.80487 435 ft 0 kts 299°